Theta_e
308 310 311 315 317 320 324 324 323 323 324 325 325 326 326 324 323 322 321 317 315 314 309 311 310 307 307 305 303 300 298 298 294 289 290 289 288 287 288 288 288 287 285
300 300 302 306 310 313 316 317 318 322 320 323 321 321 320 318 318 318 315 311 312 307 306 306 305 302 300 300 299 296 295 294 292 287 287 286 286 287 287 285 286 286 284
300 300 300 300 302 304 303 305 309 312 314 314 314 314 312 311 310 309 309 307 307 306 304 304 301 300 296 295 292 291 291 290 289 287 285 286 284 285 284 284 284 283 284
299 299 298 298 299 299 299 300 304 306 307 307 307 306 305 304 303 301 302 302 302 301 301 301 298 298 295 292 291 289 289 288 287 285 284 283 284 284 283 282 282 281 280
299 297 297 297 297 296 295 294 296 298 299 300 300 299 299 300 298 298 297 297 296 295 294 294 294 291 290 293 289 287 287 285 285 284 282 282 283 282 282 282 281 280 279
297 296 295 295 294 294 295 293 291 291 293 295 294 294 294 292 295 295 294 293 292 290 289 289 289 287 289 291 291 290 288 285 284 283 281 282 282 282 282 281 280 278 274
295 293 292 291 291 291 291 292 291 291 292 292 291 291 291 292 294 294 292 290 289 289 288 288 286 287 288 288 290 290 289 289 288 285 284 283 282 283 282 281 280 278 277
291 290 289 290 290 290 290 290 289 289 289 289 289 289 289 290 293 292 290 288 288 287 287 287 286 286 286 286 286 285 285 286 286 285 285 284 284 284 283 282 280 277 276
289 288 288 291 288 289 287 288 288 287 286 286 286 286 287 287 292 291 288 286 285 285 285 285 286 285 288 289 285 284 283 284 287 288 287 287 287 287 284 278 271 271 268
288 288 288 290 289 288 288 286 285 285 285 285 286 286 286 286 291 290 287 285 285 284 284 284 284 284 288 288 284 283 282 282 282 281 283 285 286 285 287 281 276 268 266
285 285 284 286 287 287 286 285 286 285 285 285 285 285 286 286 288 289 288 285 285 284 284 283 283 287 288 289 287 284 283 283 284 282 280 279 279 279 278 279 278 273 267
282 281 279 281 285 285 286 285 285 286 286 285 285 284 284 284 287 289 289 287 287 285 283 282 283 287 288 289 288 287 287 286 278 276 275 277 276 276 276 276 275 275 274
279 278 275 277 283 285 286 285 285 285 285 284 284 283 282 283 284 289 289 288 288 282 283 284 286 287 288 288 289 288 285 278 275 272 275 276 275 275 273 269 267 267 268
278 277 275 277 276 280 282 284 285 284 284 283 283 283 282 282 282 282 280 280 284 285 285 284 285 285 286 285 279 284 283 279 276 276 275 273 270 268 268 270 267 266 264
277 277 276 276 276 276 276 278 280 280 283 282 280 278 277 273 277 282 281 278 279 281 275 276 277 275 274 275 273 272 276 278 276 272 271 270 269 269 269 267 265 262 265
277 276 275 275 274 275 275 274 283 284 286 286 286 280 275 284 287 287 287 288 287 287 273 268 270 276 277 277 277 274 270 271 274 273 274 272 271 271 271 266 268 267 268
276 274 273 274 273 272 270 271 272 275 282 283 284 284 285 285 285 285 287 287 288 287 282 281 280 279 279 277 274 270 273 271 272 272 274 273 272 271 271 270 270 269 267
272 272 272 270 270 270 269 268 268 268 268 269 277 281 283 284 284 285 285 282 279 284 283 282 281 281 280 277 274 273 274 274 274 274 273 272 272 271 269 268 269 269 268
272 270 270 269 268 268 268 267 266 264 264 264 266 275 272 280 282 283 284 268 270 280 280 280 280 281 280 279 277 276 277 276 274 273 272 272 271 270 269 270 269 269 268
269 269 269 269 268 269 268 267 266 264 264 261 263 263 266 268 266 264 263 263 275 277 279 279 280 280 280 279 277 277 276 274 272 271 271 271 270 270 269 270 269 268 267
268 268 267 267 266 264 263 263 260 261 259 258 259 262 278 262 260 264 272 272 269 268 270 272 272 273 273 272 272 272 269 271 270 270 269 270 270 269 268 269 269 267 267
266 266 265 263 262 263 259 259 258 258 256 257 256 257 271 257 256 254 255 256 256 257 260 260 262 263 264 268 269 269 268 267 266 267 268 269 267 267 267 267 266 266 266
266 265 263 259 259 259 258 254 255 254 254 253 253 255 254 253 253 254 254 255 255 257 257 256 256 258 260 262 263 265 266 266 267 266 267 265 265 265 265 265 265 264 264
264 264 262 259 259 256 255 253 254 255 253 253 252 252 255 253 252 252 253 255 254 255 255 255 255 256 257 256 257 259 260 260 261 264 264 265 265 263 264 264 263 263 263
259 261 260 259 258 257 256 255 254 252 252 255 254 253 253 253 254 255 255 255 255 256 257 257 254 254 255 258 258 258 258 261 258 259 262 262 262 260 260 262 263 262 262
258 259 258 258 257 255 254 254 253 253 253 255 255 252 251 252 253 253 254 254 254 255 256 255 255 257 257 256 257 260 261 266 264 262 260 258 257 256 257 258 260 259 258
Wind_Speed
4 4 4 5 5 5 8 8 10 8 10 11 12 12 13 12 11 12 12 7 9 8 5 7 7 4 4 4 4 3 3 2 4 2 2 2 3 5 4 2 3 3 2
5 5 6 5 4 5 6 5 6 10 8 10 7 6 6 6 7 9 8 6 8 8 7 6 6 3 4 2 3 4 3 2 3 5 1 3 2 2 3 3 3 2 2
3 3 2 2 1 1 2 3 3 2 2 2 2 4 4 4 3 3 4 5 5 6 8 8 6 8 6 3 3 4 3 3 3 3 4 2 2 2 2 2 3 3 2
4 4 4 3 4 4 3 3 4 3 3 3 2 3 2 1 2 3 3 5 5 4 3 4 7 7 7 8 4 5 4 4 4 2 3 2 2 2 1 2 3 1 3
5 5 4 4 4 4 5 5 4 5 4 4 4 4 1 2 3 5 5 5 6 5 5 5 4 7 12 6 5 5 6 3 3 3 2 2 3 2 4 3 2 2 2
5 5 4 4 4 4 4 3 3 2 2 3 3 2 1 1 1 5 7 5 5 6 5 4 5 7 8 10 9 9 6 5 3 3 2 3 4 3 3 3 2 1 2
5 5 5 5 5 4 4 3 3 2 3 3 4 2 2 2 4 7 8 5 6 6 7 5 5 4 6 6 9 9 6 6 4 5 5 4 4 6 5 4 3 3 2
6 6 5 5 5 4 4 3 3 2 2 2 1 2 2 2 7 9 7 5 4 5 6 7 7 6 6 7 7 6 5 4 4 3 4 4 4 5 5 4 4 1 2
6 6 5 5 4 3 3 3 2 2 2 2 2 4 3 3 6 9 8 5 5 5 4 3 5 6 10 12 6 5 4 3 4 6 5 6 8 9 6 4 1 3 2
7 7 6 6 6 5 5 4 2 2 3 3 4 4 4 4 3 4 5 4 5 5 4 5 7 6 13 13 6 6 5 6 5 1 2 6 7 6 9 5 5 3 3
5 6 5 4 5 5 5 2 4 4 4 4 5 3 4 2 3 5 6 2 4 4 3 3 2 11 13 14 11 6 6 5 8 5 3 2 2 2 2 3 5 4 4
6 6 5 3 4 4 5 3 4 4 4 4 4 3 3 1 4 5 6 4 6 4 4 2 4 13 14 15 11 12 11 6 1 2 2 4 4 3 3 3 4 4 2
6 7 5 5 4 4 4 4 3 3 3 3 2 2 1 2 2 3 4 4 6 0 1 4 7 11 13 12 15 12 9 3 3 2 5 5 2 2 2 2 1 1 3
9 6 5 6 5 4 3 3 4 3 2 3 2 1 1 1 1 1 0 0 3 2 2 2 4 7 9 6 1 6 4 5 5 6 5 2 1 0 2 2 2 2 0
7 6 6 4 5 5 3 3 3 1 2 3 2 3 3 3 4 7 5 2 2 3 3 2 0 0 1 1 1 2 1 3 5 3 3 3 2 2 3 2 1 1 4
7 5 4 5 4 4 4 4 9 7 8 6 3 3 2 4 4 5 9 11 9 9 2 1 1 2 4 3 5 3 1 3 4 3 5 5 6 6 6 3 3 4 6
8 6 4 4 4 4 3 3 4 5 8 7 6 4 4 4 5 6 5 7 8 8 2 4 5 5 6 4 2 3 5 4 4 6 7 6 6 6 6 6 6 6 7
7 8 5 3 3 3 3 2 3 3 2 2 5 6 6 6 5 6 6 7 3 4 4 6 7 4 5 4 4 6 6 5 6 6 6 6 6 7 6 7 7 8 7
6 4 4 5 4 5 4 5 4 4 4 3 4 6 8 11 9 10 9 3 1 5 4 4 4 5 5 5 6 7 7 6 5 6 5 6 6 6 7 7 7 10 9
6 8 5 4 4 5 4 4 5 4 4 2 3 3 5 5 5 5 4 3 2 3 4 4 4 5 6 5 4 5 5 4 3 4 5 5 5 6 7 7 7 7 7
4 4 7 6 5 4 5 5 3 4 3 3 1 3 11 3 2 3 4 5 5 5 5 5 5 6 5 5 6 5 3 3 3 4 4 5 5 6 6 6 6 6 6
5 4 5 5 4 5 4 4 4 3 3 3 3 4 10 3 3 3 4 4 3 2 2 2 3 3 3 6 6 5 5 4 3 4 5 5 4 3 4 5 5 5 5
6 7 6 4 5 5 5 4 4 4 3 3 3 3 3 3 3 3 3 4 4 4 4 3 3 3 3 3 4 4 6 6 6 3 5 4 4 5 4 5 5 5 5
6 6 7 5 4 4 4 3 2 4 3 3 3 3 2 2 3 3 3 3 3 4 3 3 3 5 4 4 3 3 3 4 3 4 6 5 5 4 4 4 4 5 5
4 5 5 5 4 4 3 3 3 3 3 2 2 2 2 3 4 4 4 3 3 4 5 4 3 5 6 8 7 8 7 8 5 5 3 5 5 4 3 4 4 4 5
4 5 5 4 4 4 3 2 1 1 1 2 2 2 2 3 3 3 3 3 3 4 5 3 5 8 8 6 7 9 8 10 8 9 5 3 3 3 2 4 5 2 3
Wind_Direction
193 191 207 218 215 218 224 217 212 207 208 217 220 223 227 225 219 219 225 210 217 224 211 205 213 189 195 154 136 167 143 158 131 104 109 124 157 152 167 196 183 187 251
197 195 213 219 217 222 225 220 206 216 217 218 212 229 231 231 229 221 223 209 206 196 196 190 191 158 136 198 152 154 144 134 130 127 145 122 144 158 175 160 215 217 252
141 139 125 116 101 63 44 28 26 3 322 81 148 192 220 248 245 250 196 199 215 194 176 178 178 159 165 162 121 110 86 54 84 138 128 192 117 148 154 214 224 252 275
136 141 152 152 142 137 122 94 83 88 129 139 88 93 96 188 161 158 171 163 159 170 187 193 167 173 161 147 134 139 137 130 111 104 97 144 119 146 100 199 248 248 289
160 160 172 144 116 104 80 62 49 58 54 67 84 74 93 221 196 187 166 158 146 126 108 108 128 119 128 149 145 143 133 165 108 137 138 116 184 150 200 179 227 249 279
169 172 150 132 118 105 83 71 72 78 77 79 76 99 70 20 249 168 155 145 133 134 130 118 114 111 124 136 127 154 166 138 159 120 149 196 169 177 169 176 203 343 304
165 159 154 142 130 119 111 101 70 39 36 42 51 89 105 99 144 139 132 127 130 131 133 142 121 108 118 124 126 143 148 143 164 170 187 175 180 190 157 180 197 188 222
166 165 159 152 130 128 134 140 125 104 105 101 99 114 131 132 145 136 102 103 106 120 142 145 136 138 138 135 140 141 163 174 192 189 212 194 205 173 166 166 177 162 348
172 165 157 140 124 141 119 122 69 87 66 76 83 79 83 60 138 134 115 104 106 98 83 90 137 151 159 158 146 154 178 184 231 215 220 219 201 184 175 112 130 104 284
167 163 164 156 158 156 150 126 97 90 80 71 66 71 99 79 98 96 100 103 117 122 122 138 151 156 163 178 176 170 191 211 191 218 225 225 223 226 201 182 151 165 178
146 139 134 125 138 134 130 115 129 115 112 108 104 87 91 83 123 130 155 105 138 149 173 171 147 185 190 199 194 199 204 153 208 210 203 220 242 222 201 174 181 162 172
115 104 97 100 93 97 109 88 96 101 98 95 91 67 38 56 164 162 176 179 169 150 190 191 178 203 205 208 208 220 227 224 148 180 200 232 234 230 221 210 206 207 209
106 111 113 103 101 94 114 114 96 95 92 98 88 106 71 357 5 204 197 190 187 134 129 189 206 219 223 225 228 231 227 147 157 191 234 245 212 238 167 128 343 322 274
110 111 102 106 98 87 85 93 108 115 114 113 118 134 138 207 233 257 15 4 232 188 223 237 216 220 223 221 221 243 187 181 195 222 228 213 153 93 234 185 180 165 263
119 118 112 109 104 93 65 104 111 104 137 151 179 165 169 230 236 213 200 209 213 198 105 44 110 41 246 271 284 254 222 188 215 187 229 242 230 191 220 154 231 160 212
116 105 114 115 94 98 106 65 46 67 64 65 108 147 301 281 315 261 245 244 233 200 81 138 250 210 238 239 245 256 228 228 241 239 246 237 244 236 230 190 189 203 236
113 109 97 110 121 123 89 110 104 4 41 38 27 20 22 349 355 336 306 260 246 224 239 275 280 271 271 271 243 223 250 221 220 223 236 237 236 238 228 227 224 226 236
101 111 123 117 112 108 110 91 95 116 123 331 5 29 18 7 359 348 332 352 328 286 273 276 281 260 245 235 237 245 248 236 221 237 235 234 228 228 222 229 224 228 234
116 111 110 109 101 105 99 89 72 52 35 15 349 14 13 5 12 16 4 85 1 293 288 286 290 292 281 251 246 248 241 242 220 230 237 237 231 227 237 238 235 230 230
81 98 86 92 92 80 67 79 85 94 84 40 24 338 340 13 16 357 17 13 353 320 317 308 297 269 269 283 267 260 258 259 263 253 258 249 242 232 246 249 237 242 236
99 85 96 83 77 85 94 81 78 83 84 71 15 320 39 77 7 355 0 11 8 353 350 347 341 333 333 326 312 294 274 271 241 251 243 248 240 241 235 245 250 236 241
85 90 79 90 80 67 68 76 77 80 73 64 354 355 25 51 35 22 0 351 336 314 310 320 318 311 314 329 325 314 302 293 281 267 269 272 255 250 259 255 250 250 247
110 105 89 75 76 76 64 50 60 58 51 44 23 13 20 17 356 2 347 329 332 329 320 327 314 308 309 313 312 314 314 311 311 300 294 273 254 257 248 257 253 243 239
94 97 99 92 82 69 67 61 58 62 53 33 23 9 16 5 340 333 315 313 312 310 308 319 320 315 308 301 294 292 283 278 270 285 290 291 289 253 245 245 244 245 244
74 89 88 95 95 96 87 64 55 38 33 35 8 345 331 339 347 339 325 322 313 315 311 313 306 307 315 319 312 309 296 302 285 274 283 276 269 262 240 242 238 237 243
93 89 96 96 91 91 94 92 81 40 343 336 329 316 302 298 280 278 283 294 300 303 306 291 301 316 317 308 305 306 295 304 298 270 239 230 239 245 230 235 247 222 222